{"data":{"norad_id":64568,"epoch":"2026-05-25T03:29:07.261152Z","epoch_age_seconds":55804,"freshness":"FRESH","line1":"1 64568U 25135AS  26145.14522293  .00001515  00000+0  15565-3 0  9997","line2":"2 64568  97.7706 259.6108 0001742  63.8731 296.2667 14.91840530 50446","mean_motion":14.9184053,"eccentricity":0.0001742,"inclination_deg":97.7706,"raan_deg":259.6108,"arg_perigee_deg":63.8731,"mean_anomaly_deg":296.2667,"bstar":0.00015565,"rev_number":5044,"period_min":96.525062233026,"perigee_km":590.98252099059,"apogee_km":593.41098527018,"semimajor_km":6970.3337531304,"source":"CELESTRAK","updated_at":"2026-05-25T13:38:04.619676Z"}}